Orbital Elements at Epoch 2459000.5 (2020-May-31.0) TDB
Reference: JPL 11 (heliocentric ecliptic J2000)
Element | Value | Uncertainty (1-sigma) | Units |
e | .1704459481278573 | 8.5402e-08 | |
a | 2.367197061116336 | 1.412e-08 | au |
q | 1.963717913628885 | 2.0876e-07 | au |
i | 4.906221123696437 | 6.9237e-06 | deg |
node | 301.4660637462686 | 8.5271e-05 | deg |
peri | 51.35525251295185 | 8.7988e-05 | deg |
M | 56.28110700212326 | 1.9037e-05 | deg |
tp | 2458792.525457976638 (2019-Nov-05.02545798) | 6.9772e-05 | TDB |
period | 1330.301394490796 3.64 | 1.1903e-05 3.259e-08 | d yr |
n | .270615366931791 | 2.4213e-09 | deg/d |
Q | 2.770676208603787 | 1.6527e-08 | au |
|
| | Orbit Determination Parameters
Additional Information
|